This is the latest recevied weather packets stored in our database for station/object AE5HO. If no packets are shown the sender has not sent any weather packets the latest 10 day(s).
| Time | Temp. | Humidity | Pressure | Rain* | Wind** | Luminosity | Snow |
|---|---|---|---|---|---|---|---|
| 1787507957 | 39.44° C | 35% | 1015.1 hPa | 0 mm | - | 83 W/m² | - |
| 1787507654 | 39.44° C | 35% | 1015.2 hPa | 0 mm | - | 93 W/m² | - |
| 1787507349 | 38.89° C | 35% | 1015.4 hPa | 0 mm | - | 224 W/m² | - |
| 1787507045 | 38.89° C | 36% | 1015.5 hPa | 0 mm | - | 436 W/m² | - |
| 1787506741 | 38.89° C | 37% | 1015.6 hPa | 0 mm | - | 163 W/m² | - |
| 1787506438 | 38.89° C | 37% | 1015.8 hPa | 0 mm | - | 105 W/m² | - |
| 1787506138 | 38.33° C | 36% | 1015.7 hPa | 0 mm | - | 102 W/m² | - |
| 1787505834 | 38.33° C | 36% | 1015.7 hPa | 0 mm | - | 109 W/m² | - |
| 1787505534 | 38.89° C | 37% | 1015.9 hPa | 0 mm | - | 126 W/m² | - |
| 1787505229 | 38.33° C | 38% | 1016 hPa | 0 mm | - | 333 W/m² | - |
| 1787504928 | 37.78° C | 39% | 1015.9 hPa | 0 mm | - | 476 W/m² | - |
| 1787504624 | 37.78° C | 39% | 1016 hPa | 0 mm | - | 502 W/m² | - |
| 1787504320 | 37.22° C | 39% | 1016 hPa | 0 mm | - | 535 W/m² | - |
| 1787504016 | 37.78° C | 40% | 1016.3 hPa | 0 mm | - | 563 W/m² | - |
| 1787503716 | 37.22° C | 40% | 1016.3 hPa | 0 mm | - | 580 W/m² | - |
| 1787503412 | 37.22° C | 41% | 1016.3 hPa | 0 mm | - | 599 W/m² | - |
| 1787503108 | 36.67° C | 42% | 1016.1 hPa | 0 mm | - | 573 W/m² | - |
| 1787502804 | 36.67° C | 43% | 1016.2 hPa | 0 mm | - | 555 W/m² | - |
| 1787502504 | 36.67° C | 43% | 1016.1 hPa | 0 mm | - | 564 W/m² | - |
| 1787502203 | 36.11° C | 43% | 1016.5 hPa | 0 mm | - | 564 W/m² | - |
| 1787501899 | 36.11° C | 43% | 1016.2 hPa | 0 mm | - | 548 W/m² | - |
| 1787501595 | 35.56° C | 43% | 1016.3 hPa | 0 mm | - | 497 W/m² | - |
| 1787501291 | 35.56° C | 44% | 1016.5 hPa | 0 mm | - | 464 W/m² | - |
| 1787500987 | 35.56° C | 44% | 1016.3 hPa | 0 mm | - | 515 W/m² | - |
| 1787500682 | 35.56° C | 43% | 1016.3 hPa | 0 mm | - | 568 W/m² | - |
* Rain latest hour (hover to see other rain measurements)
** Current wind speed in m/s (hover to see current wind gust speed)